Location: Cisewo
(53.3833°N, 14.9000°E)
Time: 11:00:44
(UTC+00:00)

Cosmos 1818 - Pass Details

Date: 18 April 2021
Orbit: 772 x 802 km, 65.0° (Epoch: 15 May)

Event Time Altitude Azimuth Distance (km) Brightness Sun altitude
Rises 19:06:17 0° 193° (SSW) 3,273 6.6 -8.8°
Reaches altitude 10° 19:08:50 10° 186° (S) 2,353 5.8 -9.1°
Maximum altitude 19:13:46 37° 120° (ESE) 1,214 4.1 -9.7°
Drops below altitude 10° 19:18:46 10° 54° (NE) 2,382 5.9 -10.3°
Sets 19:21:21 0° 47° (NE) 3,319 6.7 -10.6°
